Location: Deuil
(48.9767°N, 2.3272°E)
Time: 02:30:55
(UTC+00:00)

Cosmos 2360 Rocket - Pass Details

Date: 22 May 2022
Orbit: 832 x 846 km, 71.0° (Epoch: 03 July)

Event Time Altitude Azimuth Distance (km) Brightness Sun altitude
Rises 02:24:41 0° 275° (W) 3,388 5.0 -12.3°
Reaches altitude 10° 02:28:34 10° 301° (WNW) 2,460 4.6 -11.9°
Maximum altitude 02:31:15 13° 330° (NNW) 2,228 4.7 -11.7°
Drops below altitude 10° 02:33:57 10° 359° (N) 2,469 5.4 -11.4°
Sets 02:37:52 0° 26° (NNE) 3,410 7.1 -11.0°
